EW8311 Weather Reports


time (UTC)temp
F
wind
direction
speed
knots
gust
knots
rain 1hr
in
rain 24hr
in
rain mn
in
humidity
%
barometer
mb
20260506100016 55 120 0.0 0.9 0.00 0.05 0.00 64 1009.3
20260506094515 55 120 0.0 1.7 0.00 0.10 0.00 61 1009.2
20260506093007 55 103 0.0 0.9 0.00 0.10 0.00 59 1009.2
20260506091506 56 103 0.0 0.0 0.00 0.10 0.00 58 1009.0
20260506090005 56 103 0.0 1.7 0.00 0.10 0.00 58 1009.1
20260506084502 57 102 0.9 1.7 0.00 0.15 0.00 57 1009.1
20260506083124 57 117 0.0 1.7 0.00 0.15 0.00 57 1009.1
20260506081604 57 101 0.0 1.7 0.00 0.15 0.00 58 1009.2
20260506080104 57 116 0.0 0.0 0.00 0.15 0.00 58 1009.3
20260506073053 57 91 0.0 0.9 0.00 0.21 0.00 54 1009.2
20260506071554 58 105 0.0 1.7 0.00 0.21 0.00 52 1009.2
20260506061546 60 316 1.7 4.3 0.00 0.27 0.21 49 1008.7
20260506044542 63 333 3.5 7.8 0.00 0.32 0.21 50 1008.1
20260506043042 64 317 4.3 11.3 0.00 0.32 0.21 48 1008.0
20260506041540 64 304 5.2 10.4 0.00 0.32 0.21 46 1007.9
20260506040041 64 280 4.3 8.7 0.00 0.32 0.21 43 1007.7
20260506034541 64 290 2.6 5.2 0.00 0.35 0.21 42 1007.5
20260506033039 65 307 2.6 6.1 0.00 0.35 0.21 41 1007.3
20260506031540 65 315 1.7 5.2 0.00 0.35 0.21 40 1007.1
20260506030038 65 311 2.6 7.0 0.00 0.35 0.21 38 1006.9
20260506024542 66 315 3.5 8.7 0.00 0.42 0.21 36 1006.7
20260506023036 66 321 4.3 7.8 0.00 0.42 0.21 35 1006.5
20260506021535 67 293 3.5 7.8 0.00 0.42 0.21 34 1006.1
20260506020034 67 322 5.2 12.2 0.00 0.42 0.21 35 1005.9
20260506014535 69 332 7.0 13.9 0.00 0.47 0.21 34 1005.7
20260506013034 70 261 7.0 15.6 0.00 0.47 0.21 33 1005.5
20260506011559 71 308 8.7 14.8 0.00 0.47 0.21 31 1005.4
20260506010032 73 269 4.3 9.6 0.00 0.47 0.21 29 1005.2
20260506004537 72 322 4.3 10.4 0.00 0.50 0.21 29 1005.0
20260506003031 72 281 4.3 9.6 0.00 0.50 0.21 28 1005.1
20260506001529 74 257 2.6 9.6 0.00 0.50 0.21 31 1004.9
20260506000045 72 274 3.5 7.8 0.00 0.50 0.21 31 1004.9
20260505234539 72 298 2.6 12.2 0.00 0.53 0.21 31 1004.8
20260505233028 73 311 2.6 7.8 0.00 0.53 0.21 31 1004.8
20260505231533 74 323 3.5 9.6 0.00 0.53 0.21 29 1004.8
20260505230051 73 264 2.6 9.6 0.00 0.53 0.21 30 1004.7
20260505224538 72 103 2.6 7.8 0.00 0.53 0.21 29 1005.0
20260505223028 73 310 3.5 10.4 0.00 0.53 0.21 32 1005.1
20260505221528 74 302 4.3 8.7 0.00 0.53 0.21 33 1005.2
20260505220027 73 300 8.7 15.6 0.00 0.53 0.21 31 1005.2
20260505214527 74 298 8.7 13.0 0.00 0.53 0.21 32 1005.4
20260505213025 72 307 7.8 17.4 0.00 0.53 0.21 35 1005.4
20260505211527 72 249 5.2 12.2 0.00 0.53 0.21 37 1005.7
20260505210018 73 325 7.8 15.6 0.00 0.53 0.21 37 1005.7
20260505204515 71 316 5.2 14.8 0.00 0.53 0.21 40 1005.6
20260505203014 71 315 6.1 10.4 0.00 0.53 0.21 42 1005.8
20260505201511 68 316 2.6 7.0 0.00 0.53 0.21 52 1006.0
20260505200011 69 295 1.7 8.7 0.00 0.53 0.21 52 1006.1
20260505194509 70 299 5.2 8.7 0.00 0.53 0.21 50 1005.9
20260505193007 70 259 1.7 7.0 0.00 0.53 0.21 54 1006.2
20260505191505 68 314 3.5 7.0 0.00 0.53 0.21 55 1006.4
20260505190004 68 328 3.5 6.1 0.00 0.53 0.21 57 1006.6
20260505184505 69 340 1.7 4.3 0.00 0.53 0.21 59 1006.8
20260505183100 67 324 2.6 6.1 0.00 0.53 0.21 59 1006.8
20260505181559 67 262 0.9 3.5 0.00 0.53 0.21 58 1007.0
20260505180100 67 311 0.0 3.5 0.00 0.53 0.21 59 1007.2
20260505174555 65 316 1.7 7.8 0.00 0.53 0.21 61 1007.2
20260505173111 66 118 0.0 2.6 0.00 0.53 0.21 62 1007.2
20260505171605 64 246 0.0 2.6 0.00 0.53 0.21 65 1007.3
20260505170045 63 326 1.7 3.5 0.00 0.53 0.21 68 1007.1
20260505164543 63 271 0.9 3.5 0.00 0.53 0.21 73 1007.1
20260505163039 62 300 0.9 1.7 0.00 0.53 0.21 77 1007.3
20260505161539 61 326 1.7 3.5 0.00 0.53 0.21 76 1007.3
20260505153033 60 300 0.0 1.7 0.00 0.53 0.21 87 1006.9
20260505151534 60 224 0.0 0.0 0.00 0.53 0.21 89 1006.8
20260505124520 57 118 0.0 0.9 0.02 0.53 0.21 92 1005.9
20260505123017 57 118 0.0 0.0 0.02 0.53 0.21 91 1005.6
20260505121529 57 118 0.0 0.0 0.01 0.52 0.20 91 1005.2
20260505120015 57 118 0.0 0.9 0.01 0.51 0.19 90 1005.1
20260505114515 57 118 0.0 2.6 0.01 0.51 0.19 88 1005.2
20260505113013 57 321 0.9 3.5 0.02 0.51 0.19 88 1005.5
20260505111511 57 321 0.9 3.5 0.03 0.51 0.19 89 1005.1
20260505101504 56 325 1.7 2.6 0.04 0.48 0.16 92 1006.5